Weather History for KDFI - February, 2014

Change the Weather History Date:

Tuesday, February 18, 2014

  Actual Average Record
Temperature  
Mean Temperature 35 °F -  
Max Temperature 43 °F 33 °F 59 °F (1949)
Min Temperature 27 °F 17 °F -12 °F (1979)
Degree Days  
Heating Degree Days 30    
Moisture  
Dew Point 23 °F    
Average Humidity 66    
Maximum Humidity 75    
Minimum Humidity 53    
Precipitation  
Precipitation 0.00 in - - ()
Sea Level Pressure  
Sea Level Pressure 29.91 in    
Wind  
Wind Speed 9 mph (SW)    
Max Wind Speed 15 mph    
Max Gust Speed 29 mph    
Visibility 8 miles    
Events      
Averages and records for this station are not official NWS values.
T = Trace of Precipitation, MM = Missing Value Source: NWS Daily Summary

Daily Weather History Graph

Daily Weather History Graph

Search for Another Location

Airport or City:

Trip Planner

Search our weather history database for the weather conditions in past years. The results will help you decide how hot, cold, wet, or windy it might be!

Date:

Astronomy

Feb. 18, 2014 Rise Set
Actual Time 7:28 AM EST 6:15 PM EST
Civil Twilight 7:00 AM EST 6:43 PM EST
Nautical Twilight 6:28 AM EST 7:15 PM EST
Astronomical Twilight 5:56 AM EST 7:47 PM EST
Moon 10:10 PM EST (2/18) 8:57 AM EST (2/18)
Length of Visible Light 11h 43m
Length of Day
10h 46m
Waning Gibbous, 87% of the Moon is Illuminated
Feb 18
Waning Gibbous
Feb 22
Last Quarter
Mar 1
New
Mar 8
First Quarter
Mar 16
Full

Hourly Weather History & Observations

Time (EST) Temp. Windchill Dew Point Humidity Pressure Visibility Wind Dir Wind Speed Gust Speed Precip Events Conditions
12:53 AM 28.9 °F 20.4 °F 21.9 °F 75% 29.74 in 9.0 mi WSW 9.2 mph 28.8 mph 0.00 in   Overcast
1:53 AM 28.9 °F 21.1 °F 21.0 °F 72% 29.77 in 8.0 mi West 8.1 mph 17.3 mph N/A   Overcast
2:53 AM 28.0 °F 18.1 °F 19.0 °F 69% 29.82 in 7.0 mi West 11.5 mph 20.7 mph N/A   Overcast
3:53 AM 27.0 °F 18.7 °F 19.0 °F 72% 29.87 in 7.0 mi West 8.1 mph 24.2 mph N/A   Overcast
4:53 AM 27.0 °F 19.5 °F 18.0 °F 69% 29.91 in 7.0 mi West 6.9 mph 18.4 mph N/A   Overcast
5:53 AM 27.0 °F 19.5 °F 18.0 °F 69% 29.96 in 8.0 mi Variable 6.9 mph - N/A   Overcast
6:53 AM 27.0 °F 20.5 °F 18.0 °F 69% 29.99 in 8.0 mi WSW 5.8 mph - N/A   Overcast
7:53 AM 27.0 °F 20.5 °F 18.0 °F 69% 30.02 in 6.0 mi West 5.8 mph - N/A   Haze
8:53 AM 27.0 °F 20.5 °F 18.0 °F 69% 30.04 in 6.0 mi WSW 5.8 mph - N/A   Haze
9:53 AM 27.0 °F 18.7 °F 19.0 °F 72% 30.07 in 6.0 mi WSW 8.1 mph 17.3 mph N/A   Haze
10:53 AM 28.9 °F 22.8 °F 19.9 °F 69% 30.07 in 6.0 mi WSW 5.8 mph - N/A   Haze
11:53 AM 32.0 °F 23.6 °F 24.1 °F 73% 30.05 in 6.0 mi SSW 10.4 mph - N/A   Haze
12:07 PM 32.0 °F 24.8 °F 24.8 °F 75% 30.02 in 6.0 mi SW 8.1 mph - N/A   Haze
12:53 PM 34.0 °F 26.6 °F 26.1 °F 73% 30.03 in 7.0 mi SSW 9.2 mph - N/A   Clear
1:53 PM 36.0 °F 27.5 °F 27.0 °F 70% 29.99 in 10.0 mi SSW 12.7 mph - N/A   Clear
2:53 PM 39.0 °F 31.8 °F 27.0 °F 62% 29.95 in 10.0 mi South 11.5 mph 19.6 mph N/A   Clear
3:53 PM 39.9 °F 32.5 °F 28.0 °F 63% 29.92 in 10.0 mi South 12.7 mph - N/A   Clear
4:53 PM 42.1 °F 35.2 °F 28.0 °F 58% 29.89 in 10.0 mi South 12.7 mph - N/A   Clear
5:53 PM 42.1 °F 35.7 °F 27.0 °F 55% 29.86 in 10.0 mi South 11.5 mph - N/A   Clear
6:53 PM 43.0 °F 36.4 °F 27.0 °F 53% 29.84 in 10.0 mi South 12.7 mph 21.9 mph N/A   Clear
7:53 PM 43.0 °F 36.4 °F 27.0 °F 53% 29.84 in 10.0 mi South 12.7 mph 20.7 mph N/A   Clear
8:53 PM 42.1 °F 35.7 °F 27.0 °F 55% 29.80 in 10.0 mi South 11.5 mph - N/A   Clear
9:53 PM 42.1 °F 35.2 °F 28.0 °F 58% 29.78 in 10.0 mi South 12.7 mph 20.7 mph N/A   Clear
10:53 PM 42.1 °F 34.5 °F 28.0 °F 58% 29.75 in 10.0 mi SSW 15.0 mph 20.7 mph N/A   Mostly Cloudy
11:53 PM 41.0 °F 34.7 °F 28.0 °F 60% 29.72 in 10.0 mi South 10.4 mph - N/A   Clear